#timestamp,LO_Frequency,Hit,StdDev 
1604235615.4,286046998.1,N
1604235635.3,286046998.3,N
1604235655.1,286047000.6,N
1604235675.9,286047000.4,N
1604235695.7,286047000.0,N
1604235715.5,286046998.1,N
1604235735.4,286047000.5,N
1604235755.2,286047000.7,N
1604235775.0,286047000.0,N
1604235775.9,286047000.0,N
1604235795.8,286047000.1,N
1604235815.6,286047000.9,N
1604235835.5,286047000.3,N
1604235855.3,286046999.9,N
1604235875.1,286046999.8,N
1604235895.9,286046998.6,N
1604235915.7,286046999.0,N
1604235935.5,286046998.9,N
1604235955.4,286046998.3,N
1604235975.2,286046998.8,N
1604235995.1,286046998.3,N
1604235996.0,286046998.3,N
1604236015.8,286046998.2,N
1604236035.6,286046998.3,N
1604236055.5,286046998.6,N
1604236075.3,286046999.6,N
1604236095.1,286047000.5,N
1604236115.9,286047000.2,N
1604236135.7,286047001.2,N
1604236155.6,286046999.7,N
1604236175.4,286047001.0,N
1604236195.2,286047000.1,N
1604236215.1,286046999.7,N
1604236216.0,286046999.7,N
1604236235.8,286046999.8,N
1604236255.7,286047000.4,N
1604236275.5,286047000.0,N
1604236295.3,286047000.1,N
1604236315.2,286047000.1,N
1604236335.9,286047002.5,N
1604236355.7,286047000.2,N
1604236375.6,286047001.8,N
1604236395.4,286047002.2,N
1604236415.3,286047001.9,N
1604236435.1,286047003.9,Y
1604236436.0,286047003.9,P
1604236455.8,286047005.9,N
1604236475.7,286047005.6,N
1604236495.5,286047011.9,Y
1604236515.4,286047000.5,P
1604236535.2,286047000.2,N
1604236555.0,286047002.3,N
1604236555.9,286047002.3,N
1604236575.8,286047002.1,N
1604236595.6,286047002.3,N
1604236615.4,286047002.6,N
1604236635.3,286047001.5,N
1604236655.1,286047001.8,N
1604236675.9,286047001.6,N
1604236695.7,286047001.3,N
1604236715.5,286047001.6,N
1604236735.4,286047003.6,Y
1604236755.2,286047000.6,P
1604236775.0,286047000.1,N
1604236776.0,286047000.1,N
1604236795.8,286047002.5,Y
1604236815.6,286047000.7,P
1604236835.5,286047001.0,P
1604236855.3,286047002.4,P
1604236875.1,286047002.5,Y
1604236895.9,286047001.4,P
1604236915.7,286047002.1,P
1604236935.6,286047001.6,P
1604236955.4,286047003.8,Y
1604236975.2,286047004.2,P
1604236995.1,286047003.4,N
1604236996.0,286047003.4,P
1604237015.8,286047003.3,Y
1604237035.7,286047002.3,P
1604237055.5,286047000.3,N
1604237075.3,286047000.7,N
1604237095.2,286046998.5,N
1604237115.0,286046998.4,N
1604237115.9,286046998.4,N
1604237135.8,286047000.7,N
1604237155.6,286047002.2,N
1604237175.4,286047002.0,N
1604237195.3,286047001.2,N
1604237215.1,286046998.6,N
1604237235.8,286046998.5,N
1604237255.7,286047000.8,N
1604237275.5,286047001.0,N
1604237295.4,286047001.0,N
1604237315.2,286047002.2,N
1604237335.0,286047001.0,N
1604237335.9,286047001.0,N
1604237355.8,286046998.7,N
1604237375.6,286046998.5,N
1604237395.4,286046998.2,N
1604237415.3,286046998.7,N
1604237435.1,286046998.5,N
1604237455.9,286047000.5,N
1604237475.7,286047002.8,N
1604237495.5,286047002.7,N
1604237515.4,286047001.4,N
1604237535.2,286047001.5,N
1604237555.0,286047000.3,N
1604237555.9,286047000.3,N
1604237575.8,286047000.6,N
1604237595.6,286046999.9,N
1604237615.5,286047000.9,N
1604237635.3,286047000.1,N
1604237655.1,286046999.7,N
1604237675.9,286047002.2,N
1604237695.7,286047001.6,N
1604237715.6,286047006.0,Y
1604237735.4,286047004.2,P
1604237755.2,286047001.8,N
1604237775.1,286046999.7,N
1604237776.0,286046999.7,N
1604237795.8,286047002.8,N
1604237815.6,286047002.2,N
1604237835.5,286047002.8,N
1604237855.3,286047000.3,N
1604237875.2,286046998.5,N
1604237895.9,286046999.0,N
1604237915.7,286046998.5,N
1604237935.6,286046999.5,N
1604237955.4,286046998.7,N
1604237975.2,286047001.1,N
1604237995.1,286046998.2,N
1604237996.0,286046998.2,N
1604238015.8,286047000.2,N
1604238035.7,286047000.9,N
1604238055.5,286046998.6,N
1604238075.3,286046999.9,N
1604238095.2,286047001.7,N
1604238115.0,286047001.3,N
1604238115.9,286047001.3,N
1604238135.8,286047003.6,N
1604238155.6,286047004.1,N
1604238175.4,286047004.4,N
1604238195.3,286047004.1,N
1604238215.1,286047004.4,N
1604238235.8,286047004.1,N
1604238255.7,286046999.8,N
1604238275.5,286047002.6,N
1604238295.4,286047002.5,N
1604238315.2,286047000.2,N
1604238335.0,286047002.6,N
1604238335.9,286047002.6,N
1604238355.8,286046999.9,N
1604238375.6,286047001.2,N
1604238395.5,286046998.3,N
1604238415.3,286046996.9,N
1604238435.1,286046999.3,N
1604238455.9,286046999.0,N
1604238475.7,286046998.1,N
1604238495.5,286046998.7,N
1604238515.4,286047002.7,N
1604238535.2,286047002.3,N
1604238555.1,286047002.8,N
1604238556.0,286047002.8,N
1604238575.8,286047000.2,N
1604238595.6,286047000.2,N
1604238615.5,286046999.7,N
1604238635.3,286047002.7,N
1604238655.1,286047002.3,N
1604238675.9,286046999.8,N
1604238695.7,286047001.0,N
1604238715.6,286046998.5,N
1604238735.4,286046998.4,N
1604238755.2,286046998.7,N
1604238775.1,286046998.8,N
1604238776.0,286046998.8,N
1604238795.8,286046996.5,N
1604238815.7,286046999.4,N
1604238835.5,286046999.1,N
1604238855.3,286046997.6,N
1604238875.2,286046997.8,N
1604238895.0,286046996.5,N
1604238895.9,286046996.5,N
1604238915.7,286046999.5,N
1604238935.6,286046998.6,N
1604238955.4,286047000.7,N
1604238975.3,286047002.4,N
1604238995.1,286047002.6,N
1604238996.0,286047002.6,N
1604239015.8,286047002.2,N
1604239035.7,286047002.3,N
1604239055.5,286047000.6,N
1604239075.3,286047002.8,N
1604239095.2,286046999.8,N
1604239115.0,286047002.6,N
1604239115.9,286047002.6,N
1604239135.8,286047000.2,N
1604239155.6,286047000.0,N
1604239175.4,286047002.4,N
1604239195.3,286047002.5,N
